GFSFLT2_250_rhum_120.txt.gz
RH
100 100 100 100 100 100 100 100 100 100 100 100 100 95 84 73 59 49 59 68 98 76 60 78 76 65 95
100 99 100 100 100 100 100 100 97 100 90 87 89 95 78 60 68 85 91 95 99 93 100 93 95 93 92
85 88 86 76 68 76 62 49 62 57 54 58 56 62 84 100 100 100 100 100 100 100 100 100 99 100 90
96 94 94 93 96 100 100 100 100 100 100 100 100 100 100 100 100 100 100 100 100 100 100 100 100 100 88
90 95 100 100 100 100 84 60 54 57 58 52 47 48 43 42 46 45 47 60 62 64 83 100 100 100 87
64 65 56 47 47 44 47 52 58 50 50 45 52 50 42 37 48 52 56 54 53 56 58 90 97 93 83
50 59 54 57 57 51 54 60 58 55 57 54 44 49 46 37 44 53 52 52 53 61 57 76 83 77 70
52 57 55 52 49 39 35 32 32 30 26 30 24 28 23 19 19 36 40 45 61 67 49 64 68 66 66
50 50 47 43 39 30 27 21 17 13 9 8 6 8 8 9 11 13 27 34 52 62 59 64 73 81 67
54 45 39 30 19 16 11 6 4 4 5 5 7 8 8 9 12 10 10 14 30 47 60 84 90 91 80
50 42 27 16 12 9 5 4 4 3 4 4 5 5 6 11 12 10 10 12 19 27 42 63 88 92 84
35 27 16 11 10 4 4 3 3 3 3 4 4 6 7 12 15 12 12 11 13 16 29 44 58 64 75
37 19 11 10 5 4 3 3 3 4 4 4 4 6 9 9 11 14 20 18 15 16 29 47 65 73 85
23 11 10 6 4 3 3 3 3 4 4 5 5 7 7 10 12 16 16 15 18 28 42 56 72 73 74
11 9 8 4 4 3 3 4 4 4 4 5 6 7 9 12 14 15 13 18 30 43 46 54 64 76 84
8 10 5 4 3 3 4 5 6 6 6 7 7 8 9 10 11 13 16 23 38 40 47 61 79 81 79
11 6 5 4 4 4 5 7 8 8 7 8 8 9 9 10 14 18 26 35 41 51 60 75 83 84 87

GFSFLT2_250_rhum_126.txt.gz
RH
62 51 57 56 83 87 71 67 77 83 95 98 95 97 87 92 92 85 94 92 86 84 58 48 50 51 53
57 58 78 81 70 76 92 100 100 100 100 100 100 100 100 100 100 100 91 49 47 49 44 56 58 60 58
81 89 78 86 100 100 100 100 100 100 100 100 100 100 100 95 61 45 48 50 53 50 51 49 44 46 49
67 95 99 100 100 100 100 100 100 100 100 100 91 67 47 46 46 49 54 58 56 53 51 46 44 38 45
100 100 100 100 100 100 100 100 100 100 100 70 51 48 44 45 53 56 61 58 55 52 45 40 27 24 29
100 100 100 100 100 100 99 83 90 49 50 47 49 52 54 59 58 61 62 58 52 39 28 26 18 19 26
100 100 92 88 91 68 50 44 50 47 45 48 55 60 63 61 58 58 48 35 24 16 11 14 15 16 26
88 70 54 50 50 49 46 43 40 43 50 48 49 55 62 62 56 38 24 13 8 9 14 12 10 9 10
54 47 43 43 41 38 38 41 51 57 57 44 57 66 58 49 35 16 9 7 8 7 7 6 8 9 8
44 46 43 42 39 40 41 48 54 60 54 54 62 53 44 39 15 8 7 6 5 5 4 5 6 7 8
53 53 50 50 52 54 60 59 57 52 47 49 47 36 27 10 8 7 5 4 4 4 4 5 6 7 9
48 50 56 60 61 61 58 54 45 48 48 31 22 18 10 7 8 5 4 4 4 4 5 5 6 8 12
46 50 54 55 55 58 62 56 55 38 29 18 17 12 7 9 5 4 4 5 5 5 6 6 8 10 16
48 46 48 55 57 58 50 48 39 31 17 15 14 10 9 6 5 5 5 7 6 6 6 7 10 14 18
41 44 45 46 51 48 46 39 31 16 12 14 10 9 8 6 6 6 8 8 6 7 7 8 12 19 24
26 32 32 38 27 27 29 24 15 11 12 11 9 9 7 6 8 8 10 8 7 8 10 13 16 24 30
30 31 29 21 24 21 16 12 11 11 10 8 10 7 6 8 9 10 10 9 8 10 13 14 17 20 26

GFSFLT2_250_rhum_129.txt.gz
RH
43 55 61 66 66 65 62 55 57 74 82 80 68 87 100 100 100 100 100 100 100 90 93 85 52 54 60
35 46 56 57 67 70 61 66 64 71 71 100 100 100 100 100 100 100 100 96 100 100 100 53 56 58 56
50 57 63 72 66 68 71 80 70 100 100 100 100 100 100 100 100 100 100 98 92 76 52 53 55 59 62
74 87 86 86 94 99 100 100 100 100 100 100 100 100 100 100 100 92 87 60 55 53 52 50 52 62 70
100 100 96 99 100 100 100 100 100 100 100 100 100 100 90 81 64 53 54 54 50 47 48 55 59 63 64
100 100 100 100 100 100 100 100 100 100 100 100 100 59 56 55 53 50 46 42 42 46 50 52 61 67 66
100 99 100 100 100 100 100 97 89 94 91 86 70 54 55 52 46 44 43 45 50 51 48 57 64 59 39
100 100 92 83 91 98 98 99 95 65 53 54 52 50 46 43 43 45 47 50 51 53 56 44 32 19 14
97 98 87 79 74 70 75 73 87 60 44 46 46 43 40 41 39 41 46 48 44 37 26 20 14 10 9
78 72 60 54 45 44 43 42 43 46 44 44 41 38 44 46 48 40 38 30 23 19 12 11 8 7 6
62 59 53 47 44 41 41 41 43 44 42 41 44 44 49 58 40 29 20 15 12 10 9 8 6 5 4
60 56 48 42 41 42 43 42 39 38 39 38 41 37 28 19 17 15 15 12 8 7 7 6 5 5 5
49 48 48 44 41 38 33 31 31 26 26 26 20 21 18 19 13 13 10 7 7 7 6 5 6 6 6
39 32 30 29 23 20 21 22 20 20 19 16 14 15 14 13 10 9 9 6 7 6 6 7 8 7 6
20 19 18 15 16 18 21 19 17 15 15 12 10 9 10 10 8 9 7 7 7 6 9 9 8 7 7
16 14 13 12 14 14 13 13 13 12 12 9 8 8 8 8 9 7 8 8 7 9 10 10 8 9 10
10 11 11 10 10 11 10 10 9 7 7 8 8 8 9 9 7 9 8 8 10 11 11 10 10 12 14

GFSFLT2_250_rhum_132.txt.gz
RH
16 15 14 14 18 24 31 34 32 38 55 63 72 82 84 79 85 80 65 94 100 100 100 100 100 99 100
17 18 18 18 20 20 22 56 72 76 72 87 99 90 69 80 66 96 100 100 91 90 88 100 95 87 73
19 25 25 30 51 68 78 82 92 92 100 100 88 81 77 86 87 100 100 100 100 100 93 92 73 57 57
53 58 71 82 93 100 96 92 93 93 85 68 70 78 99 100 100 100 100 100 99 98 96 79 63 58 56
85 78 98 83 95 99 100 100 92 79 99 100 100 100 100 100 100 100 100 76 81 70 61 60 58 56 54
100 100 100 100 98 75 100 100 100 100 100 100 100 99 100 97 100 100 100 99 94 77 57 55 57 56 52
100 100 100 100 99 94 100 100 100 100 100 100 100 100 95 88 80 78 77 72 68 64 56 58 57 54 49
91 100 100 100 98 100 100 100 100 91 87 94 95 84 77 65 53 55 61 58 56 55 56 56 52 46 44
100 100 99 100 100 100 100 100 97 94 88 81 73 68 60 49 47 48 50 53 54 55 53 50 44 36 31
100 100 100 98 86 83 85 80 75 69 67 62 52 43 47 43 41 42 45 47 48 45 40 36 29 21 18
76 73 70 66 69 67 63 52 44 45 42 42 45 41 41 43 42 40 43 41 36 26 20 16 16 16 15
58 57 54 50 48 46 42 38 37 36 39 34 33 27 27 28 26 21 20 17 14 13 14 17 11 9 8
39 39 38 37 35 33 29 30 31 24 21 20 18 16 17 15 13 13 13 12 15 14 14 9 8 8 8
23 21 18 16 14 12 12 11 10 10 12 15 18 17 16 13 11 12 12 11 12 12 8 7 8 7 7
15 12 11 10 8 9 10 10 10 10 11 13 13 12 11 11 12 12 9 7 7 7 8 8 6 8 7
10 10 10 10 9 8 8 7 6 7 6 7 7 7 7 6 7 7 8 8 7 8 7 7 9 7 9
7 7 7 7 6 6 6 6 6 6 6 6 6 6 6 6 7 7 8 10 8 6 10 9 9 10 10

GFSFLT2_250_rhum_135.txt.gz
RH
19 18 21 20 19 18 18 17 18 18 18 17 21 29 39 49 64 79 87 100 100 99 100 91 82 69 87
18 20 22 22 23 22 20 19 20 19 19 22 34 52 54 72 81 100 100 100 92 87 88 67 78 100 100
22 22 22 23 23 25 29 32 33 44 68 91 100 93 87 100 100 100 98 94 87 84 93 100 100 100 100
37 33 38 44 63 64 63 76 76 82 98 100 100 95 96 99 97 72 70 79 100 100 100 100 95 85 88
62 76 85 86 87 81 90 92 94 84 85 87 77 70 63 62 66 88 98 100 100 90 90 99 95 94 89
95 100 99 100 100 100 100 100 90 55 100 100 100 100 100 87 86 85 95 98 100 96 85 94 97 86 70
98 97 88 84 93 99 91 99 100 100 100 98 86 88 84 89 100 90 88 91 82 88 92 89 65 57 60
79 76 94 91 100 100 100 100 100 98 97 100 100 100 100 99 97 92 95 91 85 73 60 53 48 45 48
100 100 99 100 100 100 100 100 100 100 91 86 98 100 100 93 82 76 68 66 66 58 42 41 43 46 50
100 100 100 99 98 94 93 88 85 92 76 70 73 56 64 59 42 34 37 46 42 35 35 38 39 43 43
75 74 69 63 59 58 52 48 49 47 40 36 41 34 30 36 38 26 26 24 25 24 24 21 23 20 14
48 45 44 39 32 29 24 21 19 19 18 16 15 14 15 15 14 14 13 14 17 15 15 15 14 10 9
26 23 23 25 25 21 17 15 12 9 9 9 10 10 11 12 13 11 13 12 11 11 10 9 10 9 10
19 17 14 13 11 10 9 8 7 7 7 8 8 8 7 7 8 9 9 9 10 10 9 8 8 7 8
13 12 10 9 8 7 7 7 7 7 6 6 7 6 6 6 6 6 6 6 6 6 6 6 6 6 7
10 8 8 7 7 7 7 7 7 7 6 6 6 5 5 5 5 6 6 5 5 6 6 7 7 8 9
8 7 7 7 7 6 6 6 6 6 6 5 5 5 5 5 5 6 6 6 7 7 8 9 10 8 8

GFSFLT2_250_rhum_138.txt.gz
RH
23 27 27 28 49 38 40 34 30 29 22 20 22 24 25 22 23 24 27 32 53 75 90 100 100 100 100
26 28 45 48 42 36 35 29 23 26 29 34 28 26 27 28 31 36 42 72 93 100 100 100 100 100 100
23 33 29 30 30 26 32 45 65 52 45 54 52 52 56 63 68 77 72 87 97 100 100 100 100 99 92
22 26 30 34 44 50 63 67 68 77 94 88 78 78 73 72 80 95 100 100 100 96 91 94 95 96 94
31 43 58 65 69 74 83 97 86 91 95 92 93 94 94 99 100 97 100 94 90 93 82 77 87 89 89
84 79 86 86 92 88 82 100 89 76 78 73 79 68 64 67 64 63 59 66 96 100 100 100 98 94 90
89 88 83 100 94 78 88 92 96 91 86 94 65 66 71 66 77 77 85 94 92 81 93 89 92 98 100
85 81 79 80 75 76 76 70 74 78 81 92 95 100 100 100 98 82 68 71 78 79 75 75 73 70 65
100 100 100 100 100 100 100 100 100 100 96 88 97 99 99 86 77 73 70 70 64 59 54 47 41 36 32
56 57 58 58 61 66 68 68 62 61 50 46 40 35 42 43 30 24 27 27 26 24 24 25 20 19 17
53 56 62 59 57 53 49 44 40 33 32 31 29 22 16 15 22 16 13 10 9 9 10 12 12 13 14
36 34 32 28 26 27 26 24 21 22 20 16 15 13 12 11 11 10 10 9 8 8 8 9 10 11 11
32 29 25 19 16 14 12 11 10 9 8 7 7 7 8 8 9 8 9 7 7 7 7 7 7 7 8
29 23 16 13 12 11 10 8 7 6 6 6 7 7 7 6 7 7 7 7 6 6 6 6 6 6 6
19 14 12 12 10 8 7 7 6 7 7 7 7 6 6 6 5 6 5 5 5 5 5 5 5 5 5
14 12 11 10 8 7 7 7 7 6 6 5 5 5 6 6 5 5 5 5 5 5 5 5 5 5 6
11 10 10 8 8 8 7 6 5 5 6 6 6 6 6 6 5 5 5 5 5 5 5 6 6 6 7